Overview Statistics Trail Chart Weather Telemetry Raw packets
 

This is the latest recevied weather packets stored in our database for station/object 1NW106. If no packets are shown the sender has not sent any weather packets the latest 10 day(s).

<< 30 31 32 33 34 35 36 >>
Time Temp. Humidity Pressure Rain* Wind** Luminosity Snow
1787914170 28.33° C 81% 1006.2 hPa 14.73 mm - - -
1787913570 28.33° C 80% 1006.3 hPa 14.73 mm - - -
1787912974 28.33° C 78% 1006.2 hPa 14.73 mm - - -
1787912370 28.33° C 79% 1006.1 hPa 14.73 mm - - -
1787911770 28.33° C 79% 1006.1 hPa 14.73 mm - - -
1787911170 28.89° C 78% 1006.1 hPa 14.73 mm - - -
1787910570 28.33° C 80% 1006.1 hPa 14.73 mm - - -
1787909970 28.33° C 80% 1006.1 hPa 14.73 mm - - -
1787909370 28.33° C 79% 1006.2 hPa 14.73 mm - - -
1787908779 28.89° C 76% 1006.3 hPa 14.73 mm - - -
1787908170 29.44° C 78% 1006.3 hPa 14.73 mm - - -
1787907570 29.44° C 79% 1006.2 hPa 14.73 mm - - -
1787906970 28.89° C 82% 1006.1 hPa 14.73 mm - - -
1787906404 29.44° C 81% 1006.3 hPa 14.73 mm - - -
1787906030 29.44° C 80% 1006.5 hPa 14.73 mm - - -
1787905171 29.44° C 79% 1006.7 hPa 14.73 mm - - -
1787904570 28.89° C 81% 1006.7 hPa 14.73 mm - - -
1787903970 29.44° C 80% 1006.8 hPa 14.73 mm - - -
1787903371 29.44° C 79% 1007 hPa 14.73 mm - - -
1787902770 29.44° C 80% 1007 hPa 14.73 mm - - -
1787902171 28.89° C 81% 1007.2 hPa 14.73 mm - - -
1787901570 29.44° C 79% 1007.3 hPa 14.73 mm - - -
1787900970 29.44° C 79% 1007.5 hPa 14.73 mm - - -
1787900370 29.44° C 79% 1007.7 hPa 14.73 mm - - -
1787899770 29.44° C 80% 1007.8 hPa 14.73 mm - - -

* Rain latest hour (hover to see other rain measurements)
** Current wind speed in m/s (hover to see current wind gust speed)